Tracking 20711 objects as of 30-May-2020
HD Live streaming from Space Station
objects crossing your sky now

FENGYUN 1C DEB

Track FENGYUN 1C DEB now!
10-day predictions


NORAD ID: 33689
Int'l Code: 1999-025DGA
Perigee: 755.7 km
Apogee: 839.1 km
Inclination: 99.5 °
Period: 100.7 minutes
Semi major axis: 7168 km
RCS: 0.0143 m2 (small)
Launch date: May 10, 1999
Source: People's Republic of China (PRC)
Launch site: Taiyaun Space Center, China (TSC)

Note: This is SATELLITE DEBRIS
aabbcc
Your satellite tracking list
Your tracking list is empty




NASA's NSSDC Master Catalog

Two Line Element Set (TLE):
1 33689U 99025DGA 20151.16477126  .00000265  00000-0  11960-3 0  9990
2 33689  99.5390 278.5581 0058146 206.9117 277.7611 14.30432680633668
Source of the keplerian elements: AFSPC